This is the latest recevied weather packets stored in our database for station/object DJ3AN. If no packets are shown the sender has not sent any weather packets the latest 1 day(s).
| Time | Temp. | Humidity | Pressure | Rain* | Wind** | Luminosity | Snow |
|---|---|---|---|---|---|---|---|
| 1836274680 | 15.56° C | 91% | 1013.8 hPa | 0 mm | 0.45 m/s, 149° | - | - |
| 1836274530 | 15.56° C | 90% | 1013.8 hPa | 0 mm | 0.89 m/s, 137° | - | - |
| 1836274380 | 15.56° C | 91% | 1013.7 hPa | 0 mm | 1.34 m/s, 121° | - | - |
| 1836274231 | 15.56° C | 91% | 1013.8 hPa | 0 mm | 0.45 m/s, 144° | - | - |
| 1836274080 | 15.56° C | 91% | 1013.8 hPa | 0 mm | 0.45 m/s, 114° | - | - |
| 1778019605 | 12.22° C | 83% | 1008.9 hPa | 0 mm | 0.89 m/s, 28° | - | - |
| 1778019306 | 12.22° C | 84% | 1008.9 hPa | 0 mm | 0.89 m/s, 27° | - | - |
| 1778019007 | 12.22° C | 84% | 1008.9 hPa | 0 mm | 0 m/s | - | - |
| 1778018706 | 12.22° C | 84% | 1009 hPa | 0 mm | 1.34 m/s, 6° | - | - |
| 1778018406 | 12.22° C | 85% | 1009 hPa | 0 mm | 0.89 m/s, 12° | - | - |
| 1778018105 | 12.22° C | 86% | 1009 hPa | 0 mm | 1.34 m/s, 27° | - | - |
| 1778017807 | 12.22° C | 87% | 1009 hPa | 0 mm | 1.79 m/s, 23° | - | - |
| 1778017506 | 12.22° C | 88% | 1009.1 hPa | 0 mm | 0.89 m/s, 14° | - | - |
| 1778017205 | 12.22° C | 89% | 1009.1 hPa | 0 mm | 1.34 m/s, 7° | - | - |
| 1778016906 | 12.78° C | 89% | 1009.1 hPa | 0 mm | 0 m/s | - | - |
| 1778016605 | 12.78° C | 89% | 1009.2 hPa | 0 mm | 0.45 m/s, 16° | - | - |
| 1778016306 | 12.78° C | 89% | 1009.2 hPa | 0 mm | 0.45 m/s, 10° | - | - |
| 1778016005 | 12.78° C | 90% | 1009.2 hPa | 0 mm | 0 m/s | - | - |
| 1778015706 | 12.78° C | 89% | 1009.2 hPa | 0 mm | 0.89 m/s, 7° | - | - |
| 1778015406 | 12.78° C | 89% | 1009.2 hPa | 0 mm | 0 m/s | - | - |
| 1778015106 | 12.78° C | 89% | 1009.2 hPa | 0 mm | 0.45 m/s, 7° | - | - |
| 1778014806 | 12.78° C | 89% | 1009.3 hPa | 0 mm | 0 m/s | - | - |
| 1778014506 | 12.78° C | 89% | 1009.3 hPa | 0 mm | 0 m/s | - | - |
| 1778014207 | 12.78° C | 89% | 1009.3 hPa | 0 mm | 0 m/s | - | - |
| 1778013906 | 12.78° C | 89% | 1009.3 hPa | 0 mm | 0 m/s | - | - |
* Rain latest hour (hover to see other rain measurements)
** Current wind speed in m/s (hover to see current wind gust speed)